,,,PA_Meas_PMT16A,,PR_Meas_QMR101_102,,RH_Meas_QMH101,,SR_Meas_QMS101,,TA_Meas_QMH101,,GenWind,,GenWind,
date,time,status,PA,status,PR,status,RH,status,SR,status,TA,status,DirAvg,status,SpdAvg,
2010-03-08, 00:00:04,VALID,1011.62,VALID,0,VALID,101.064,VALID,0.105969,VALID,24.4911,VALID,10,VALID,0.168359,
2010-03-08, 00:01:04,VALID,1011.61,VALID,0,VALID,101.056,VALID,0,VALID,24.5106,VALID,10,VALID,0.0105469,
2010-03-08, 00:02:04,VALID,1011.58,VALID,0,VALID,101.056,VALID,0.105969,VALID,24.5106,VALID,10,VALID,0,
2010-03-08, 00:03:04,VALID,1011.55,VALID,0,VALID,101.056,VALID,0.105969,VALID,24.5515,VALID,10,VALID,0,
2010-03-08, 00:04:04,VALID,1011.53,VALID,0,VALID,101.064,VALID,0,VALID,24.571,VALID,10,VALID,0,
2010-03-08, 00:05:04,VALID,1011.53,VALID,0,VALID,101.079,VALID,0,VALID,24.5496,VALID,10,VALID,0,
2010-03-08, 00:06:04,VALID,1011.51,VALID,0,VALID,101.072,VALID,0.105969,VALID,24.5905,VALID,10,VALID,0,
2010-03-08, 00:07:04,VALID,1011.51,VALID,0,VALID,101.064,VALID,0.105969,VALID,24.571,VALID,10,VALID,0,
2010-03-08, 00:08:04,VALID,1011.52,VALID,0,VALID,101.056,VALID,0,VALID,24.6099,VALID,10,VALID,0,
2010-03-08, 00:09:04,VALID,1011.52,VALID,0,VALID,101.018,VALID,0.105969,VALID,24.6081,VALID,10,VALID,0,
2010-03-08, 00:10:04,VALID,1011.54,VALID,0,VALID,101.072,VALID,0,VALID,24.6294,VALID,10,VALID,0,
2010-03-08, 00:11:04,VALID,1011.55,VALID,0,VALID,101.102,VALID,0.105969,VALID,24.5886,VALID,10,VALID,0,
2010-03-08, 00:12:04,VALID,1011.54,VALID,0,VALID,101.102,VALID,0.105969,VALID,24.5905,VALID,10,VALID,0,
2010-03-08, 00:13:04,VALID,1011.54,VALID,0,VALID,101.117,VALID,0.105969,VALID,24.5886,VALID,10,VALID,0,
2010-03-08, 00:14:04,VALID,1011.53,VALID,0,VALID,101.102,VALID,0,VALID,24.6099,VALID,10,VALID,0,
2010-03-08, 00:15:04,VALID,1011.53,VALID,0,VALID,101.087,VALID,0,VALID,24.6099,VALID,10,VALID,0,
2010-03-08, 00:16:04,VALID,1011.51,VALID,0,VALID,101.087,VALID,0.105969,VALID,24.6099,VALID,10,VALID,0,
2010-03-08, 00:17:04,VALID,1011.47,VALID,0,VALID,101.064,VALID,0,VALID,24.6294,VALID,10,VALID,0,
2010-03-08, 00:18:04,VALID,1011.45,VALID,0,VALID,101.095,VALID,0.105969,VALID,24.6294,VALID,10,VALID,0,
2010-03-08, 00:19:04,VALID,1011.41,VALID,0,VALID,101.087,VALID,0,VALID,24.6294,VALID,10,VALID,0,
2010-03-08, 00:20:04,VALID,1011.4,VALID,0,VALID,101.102,VALID,0.105969,VALID,24.6081,VALID,10,VALID,0,
2010-03-08, 00:21:04,VALID,1011.41,VALID,0,VALID,101.102,VALID,0.105969,VALID,24.6294,VALID,10,VALID,0,
2010-03-08, 00:22:04,VALID,1011.4,VALID,0,VALID,101.087,VALID,0.105969,VALID,24.6081,VALID,10,VALID,0,
2010-03-08, 00:23:04,VALID,1011.38,VALID,0,VALID,101.064,VALID,0,VALID,24.6489,VALID,10,VALID,0.337891,
2010-03-08, 00:24:04,VALID,1011.38,VALID,0,VALID,101.064,VALID,0,VALID,24.6489,VALID,10,VALID,0.401953,
2010-03-08, 00:25:04,VALID,1011.35,VALID,0,VALID,101.095,VALID,0.105969,VALID,24.6489,VALID,10,VALID,0.488672,
2010-03-08, 00:26:04,VALID,1011.32,VALID,0,VALID,101.102,VALID,0.105969,VALID,24.6294,VALID,10,VALID,0.450781,
2010-03-08, 00:27:04,VALID,1011.32,VALID,0,VALID,101.102,VALID,0.105969,VALID,24.6081,VALID,10,VALID,0.236719,
2010-03-08, 00:28:04,VALID,1011.33,VALID,0,VALID,101.11,VALID,0,VALID,24.6099,VALID,10,VALID,0.126172,
2010-03-08, 00:29:04,VALID,1011.34,VALID,0,VALID,101.125,VALID,0,VALID,24.5691,VALID,10,VALID,0,
2010-03-08, 00:30:04,VALID,1011.34,VALID,0,VALID,101.125,VALID,0.105969,VALID,24.5691,VALID,10,VALID,0,
2010-03-08, 00:31:04,VALID,1011.34,VALID,0,VALID,101.148,VALID,0.105969,VALID,24.5106,VALID,10,VALID,0,
2010-03-08, 00:32:04,VALID,1011.36,VALID,0,VALID,101.148,VALID,0.105969,VALID,24.4717,VALID,10,VALID,0,
2010-03-08, 00:33:04,VALID,1011.35,VALID,0,VALID,101.14,VALID,0,VALID,24.4522,VALID,10,VALID,0,
2010-03-08, 00:34:04,VALID,1011.35,VALID,0,VALID,101.133,VALID,0,VALID,24.454,VALID,10,VALID,0,
2010-03-08, 00:35:04,VALID,1011.34,VALID,0,VALID,101.11,VALID,0,VALID,24.4717,VALID,10,VALID,0,
2010-03-08, 00:36:04,VALID,1011.35,VALID,0,VALID,101.102,VALID,0,VALID,24.5125,VALID,10,VALID,0.200781,
2010-03-08, 00:37:04,VALID,1011.33,VALID,0,VALID,101.133,VALID,0.105969,VALID,24.5125,VALID,189,VALID,0.573828,
2010-03-08, 00:38:04,VALID,1011.36,VALID,0,VALID,101.117,VALID,0,VALID,24.532,VALID,189,VALID,0.351563,
2010-03-08, 00:39:04,VALID,1011.37,VALID,0,VALID,101.102,VALID,0,VALID,24.5106,VALID,189,VALID,0.283203,
2010-03-08, 00:40:04,VALID,1011.38,VALID,0,VALID,101.102,VALID,0.105969,VALID,24.571,VALID,189,VALID,0,
2010-03-08, 00:41:04,VALID,1011.45,VALID,0,VALID,101.11,VALID,0,VALID,24.571,VALID,189,VALID,0,
2010-03-08, 00:42:04,VALID,1011.46,VALID,0,VALID,101.087,VALID,0.105969,VALID,24.5691,VALID,189,VALID,0,
2010-03-08, 00:43:04,VALID,1011.45,VALID,0,VALID,101.079,VALID,0,VALID,24.5886,VALID,189,VALID,0,
2010-03-08, 00:44:04,VALID,1011.46,VALID,0,VALID,101.102,VALID,0.105969,VALID,24.6294,VALID,189,VALID,0,
2010-03-08, 00:45:04,VALID,1011.45,VALID,0,VALID,101.079,VALID,0.105969,VALID,24.6276,VALID,189,VALID,0,
2010-03-08, 00:46:04,VALID,1011.42,VALID,0,VALID,101.079,VALID,0,VALID,24.6471,VALID,189,VALID,0,
2010-03-08, 00:47:04,VALID,1011.39,VALID,0,VALID,101.087,VALID,0,VALID,24.6879,VALID,189,VALID,0.128125,
2010-03-08, 00:48:04,VALID,1011.37,VALID,0,VALID,101.087,VALID,0.105969,VALID,24.7074,VALID,189,VALID,0.225391,
2010-03-08, 00:49:04,VALID,1011.4,VALID,0,VALID,101.079,VALID,0.105969,VALID,24.686,VALID,189,VALID,0.273438,
2010-03-08, 00:50:04,VALID,1011.31,VALID,0,VALID,101.087,VALID,0,VALID,24.7269,VALID,189,VALID,0.163281,
2010-03-08, 00:51:04,VALID,1011.33,VALID,0,VALID,101.14,VALID,0.105969,VALID,24.6666,VALID,189,VALID,0.410156,
2010-03-08, 00:52:04,VALID,1011.34,VALID,0,VALID,101.133,VALID,0,VALID,24.6666,VALID,189,VALID,0.505469,
2010-03-08, 00:53:04,VALID,1011.32,VALID,0,VALID,101.14,VALID,0.105969,VALID,24.6471,VALID,189,VALID,0.608984,
2010-03-08, 00:54:04,VALID,1011.33,VALID,0,VALID,101.117,VALID,0,VALID,24.6471,VALID,17,VALID,0.529688,
2010-03-08, 00:55:04,VALID,1011.32,VALID,0,VALID,101.125,VALID,0,VALID,24.6471,VALID,17,VALID,0.422266,
2010-03-08, 00:56:04,VALID,1011.3,VALID,0,VALID,101.148,VALID,0,VALID,24.6081,VALID,17,VALID,0.280078,
2010-03-08, 00:57:04,VALID,1011.29,VALID,0,VALID,101.156,VALID,0.105969,VALID,24.6099,VALID,17,VALID,0,
2010-03-08, 00:58:04,VALID,1011.32,VALID,0,VALID,101.14,VALID,0.105969,VALID,24.5496,VALID,17,VALID,0,
2010-03-08, 00:59:04,VALID,1011.27,VALID,0,VALID,101.133,VALID,0,VALID,24.571,VALID,17,VALID,0,
2010-03-08, 01:00:04,VALID,1011.24,VALID,0,VALID,101.117,VALID,0.105969,VALID,24.5301,VALID,17,VALID,0,
2010-03-08, 01:01:04,VALID,1011.24,VALID,0,VALID,101.102,VALID,0.105969,VALID,24.5301,VALID,17,VALID,0,
2010-03-08, 01:02:04,VALID,1011.18,VALID,0,VALID,101.117,VALID,0.105969,VALID,24.5496,VALID,17,VALID,0,
2010-03-08, 01:03:04,VALID,1011.15,VALID,0,VALID,101.11,VALID,0,VALID,24.5515,VALID,17,VALID,0,
2010-03-08, 01:04:04,VALID,1011.12,VALID,0,VALID,101.095,VALID,0,VALID,24.5496,VALID,17,VALID,0,
2010-03-08, 01:05:04,VALID,1011.1,VALID,0,VALID,101.087,VALID,0,VALID,24.5496,VALID,17,VALID,0,
2010-03-08, 01:06:04,VALID,1011.07,VALID,0,VALID,101.087,VALID,0.105969,VALID,24.5496,VALID,17,VALID,0,
2010-03-08, 01:07:04,VALID,1011.07,VALID,0,VALID,101.072,VALID,0,VALID,24.571,VALID,17,VALID,0,
2010-03-08, 01:08:04,VALID,1011.03,VALID,0,VALID,101.087,VALID,0.105969,VALID,24.5691,VALID,17,VALID,0,
2010-03-08, 01:09:04,VALID,1011.01,VALID,0,VALID,101.102,VALID,0.105969,VALID,24.5691,VALID,17,VALID,0,
2010-03-08, 01:10:04,VALID,1010.98,VALID,0,VALID,101.072,VALID,0,VALID,24.5886,VALID,17,VALID,0,
2010-03-08, 01:11:04,VALID,1010.94,VALID,0,VALID,101.072,VALID,0,VALID,24.5886,VALID,17,VALID,0,
2010-03-08, 01:12:04,VALID,1010.93,VALID,0,VALID,101.087,VALID,0,VALID,24.5886,VALID,17,VALID,0,
2010-03-08, 01:13:04,VALID,1010.91,VALID,0,VALID,101.087,VALID,0.105969,VALID,24.6081,VALID,17,VALID,0,
2010-03-08, 01:14:04,VALID,1010.89,VALID,0,VALID,101.087,VALID,0,VALID,24.6294,VALID,17,VALID,0,
2010-03-08, 01:15:04,VALID,1010.89,VALID,0,VALID,101.079,VALID,0,VALID,24.6489,VALID,17,VALID,0,
2010-03-08, 01:16:04,VALID,1010.9,VALID,0,VALID,101.095,VALID,0,VALID,24.6684,VALID,17,VALID,0,
2010-03-08, 01:17:04,VALID,1010.88,VALID,0,VALID,101.11,VALID,0,VALID,24.6471,VALID,17,VALID,0,
2010-03-08, 01:18:04,VALID,1010.88,VALID,0,VALID,101.11,VALID,0.105969,VALID,24.6471,VALID,17,VALID,0,
2010-03-08, 01:19:04,VALID,1010.87,VALID,0,VALID,101.095,VALID,0.105969,VALID,24.6879,VALID,17,VALID,0,
2010-03-08, 01:20:04,VALID,1010.91,VALID,0,VALID,101.102,VALID,0,VALID,24.6666,VALID,17,VALID,0,
2010-03-08, 01:21:04,VALID,1010.89,VALID,0,VALID,101.087,VALID,0.105969,VALID,24.6879,VALID,17,VALID,0,
2010-03-08, 01:22:04,VALID,1010.9,VALID,0,VALID,101.087,VALID,0,VALID,24.6666,VALID,17,VALID,0,
2010-03-08, 01:23:04,VALID,1010.89,VALID,0,VALID,101.079,VALID,0,VALID,24.7074,VALID,17,VALID,0,
2010-03-08, 01:24:04,VALID,1010.9,VALID,0,VALID,101.095,VALID,0,VALID,24.7074,VALID,17,VALID,0,
2010-03-08, 01:25:04,VALID,1010.93,VALID,0,VALID,101.064,VALID,0.105969,VALID,24.7464,VALID,17,VALID,0,
2010-03-08, 01:26:04,VALID,1010.93,VALID,0,VALID,101.087,VALID,0.105969,VALID,24.7445,VALID,17,VALID,0,
2010-03-08, 01:27:04,VALID,1010.96,VALID,0,VALID,101.079,VALID,0.105969,VALID,24.764,VALID,17,VALID,0,
2010-03-08, 01:28:04,VALID,1010.93,VALID,0,VALID,101.064,VALID,0,VALID,24.8049,VALID,17,VALID,0,
2010-03-08, 01:29:04,VALID,1010.93,VALID,0,VALID,101.072,VALID,0,VALID,24.8049,VALID,17,VALID,0,
2010-03-08, 01:30:04,VALID,1010.89,VALID,0,VALID,101.056,VALID,0.105969,VALID,24.803,VALID,17,VALID,0,
2010-03-08, 01:31:04,VALID,1010.87,VALID,0,VALID,101.064,VALID,0,VALID,24.8244,VALID,17,VALID,0,
2010-03-08, 01:32:04,VALID,1010.84,VALID,0,VALID,101.049,VALID,0.105969,VALID,24.8633,VALID,17,VALID,0,
2010-03-08, 01:33:04,VALID,1010.84,VALID,0,VALID,101.064,VALID,0,VALID,24.8828,VALID,17,VALID,0,
2010-03-08, 01:34:04,VALID,1010.86,VALID,0,VALID,101.095,VALID,0,VALID,24.8828,VALID,17,VALID,0,
2010-03-08, 01:35:04,VALID,1010.86,VALID,0,VALID,101.072,VALID,0,VALID,24.9023,VALID,17,VALID,0,
2010-03-08, 01:36:04,VALID,1010.87,VALID,0,VALID,101.056,VALID,0,VALID,24.9413,VALID,17,VALID,0,
2010-03-08, 01:37:04,VALID,1010.88,VALID,0,VALID,101.079,VALID,0,VALID,24.9608,VALID,17,VALID,0,
2010-03-08, 01:38:04,VALID,1010.87,VALID,0,VALID,101.072,VALID,0,VALID,24.9394,VALID,17,VALID,0,
2010-03-08, 01:39:04,VALID,1010.86,VALID,0,VALID,101.041,VALID,0,VALID,24.9784,VALID,17,VALID,0,
2010-03-08, 01:40:04,VALID,1010.88,VALID,0,VALID,101.056,VALID,0,VALID,24.9998,VALID,17,VALID,0,
2010-03-08, 01:41:04,VALID,1010.87,VALID,0,VALID,101.049,VALID,0.105969,VALID,25.0193,VALID,17,VALID,0,
2010-03-08, 01:42:04,VALID,1010.86,VALID,0,VALID,101.049,VALID,0,VALID,24.9998,VALID,17,VALID,0,
2010-03-08, 01:43:04,VALID,1010.83,VALID,0,VALID,101.049,VALID,0,VALID,24.9979,VALID,17,VALID,0,
2010-03-08, 01:44:04,VALID,1010.82,VALID,0,VALID,101.049,VALID,0,VALID,25.0193,VALID,17,VALID,0,
2010-03-08, 01:45:04,VALID,1010.81,VALID,0,VALID,101.026,VALID,0,VALID,25.0193,VALID,17,VALID,0,
2010-03-08, 01:46:04,VALID,1010.85,VALID,0,VALID,101.026,VALID,0,VALID,25.0193,VALID,17,VALID,0,
2010-03-08, 01:47:04,VALID,1010.82,VALID,0,VALID,101.018,VALID,0,VALID,24.9998,VALID,17,VALID,0,
2010-03-08, 01:48:04,VALID,1010.8,VALID,0,VALID,101.011,VALID,0,VALID,24.9803,VALID,17,VALID,0,
2010-03-08, 01:49:04,VALID,1010.81,VALID,0,VALID,100.995,VALID,0,VALID,24.9803,VALID,17,VALID,0,
2010-03-08, 01:50:04,VALID,1010.8,VALID,0,VALID,100.98,VALID,0,VALID,24.9589,VALID,17,VALID,0,
2010-03-08, 01:51:04,VALID,1010.79,VALID,0,VALID,100.995,VALID,0.105969,VALID,24.9998,VALID,17,VALID,0,
2010-03-08, 01:52:04,VALID,1010.82,VALID,0,VALID,100.965,VALID,0,VALID,24.9784,VALID,170,VALID,0,
2010-03-08, 01:53:04,VALID,1010.81,VALID,0,VALID,101.003,VALID,0,VALID,24.9998,VALID,170,VALID,0,
2010-03-08, 01:54:04,VALID,1010.79,VALID,0,VALID,100.98,VALID,0,VALID,24.9998,VALID,170,VALID,0,
2010-03-08, 01:55:04,VALID,1010.78,VALID,0,VALID,101.003,VALID,0,VALID,24.9803,VALID,170,VALID,0,
2010-03-08, 01:56:04,VALID,1010.78,VALID,0,VALID,100.988,VALID,0.105969,VALID,24.9784,VALID,170,VALID,0,
2010-03-08, 01:57:04,VALID,1010.78,VALID,0,VALID,101.003,VALID,0,VALID,24.9803,VALID,170,VALID,0,
2010-03-08, 01:58:04,VALID,1010.79,VALID,0,VALID,100.988,VALID,0,VALID,24.9803,VALID,170,VALID,0,
2010-03-08, 01:59:04,VALID,1010.78,VALID,0,VALID,100.988,VALID,0,VALID,24.9998,VALID,170,VALID,0,
2010-03-08, 02:00:04,VALID,1010.77,VALID,0,VALID,100.988,VALID,0,VALID,25.0193,VALID,170,VALID,0,
2010-03-08, 02:01:04,VALID,1010.77,VALID,0,VALID,100.995,VALID,0.105969,VALID,25.0174,VALID,170,VALID,0,
2010-03-08, 02:02:04,VALID,1010.75,VALID,0,VALID,101.018,VALID,0,VALID,25.0193,VALID,170,VALID,0,
2010-03-08, 02:03:04,VALID,1010.73,VALID,0,VALID,101.011,VALID,0,VALID,24.9979,VALID,170,VALID,0,
2010-03-08, 02:04:04,VALID,1010.74,VALID,0,VALID,101.026,VALID,0.105969,VALID,24.9784,VALID,170,VALID,0,
2010-03-08, 02:05:04,VALID,1010.71,VALID,0,VALID,101.018,VALID,0.105969,VALID,24.9803,VALID,170,VALID,0,
2010-03-08, 02:06:04,VALID,1010.71,VALID,0,VALID,100.995,VALID,0,VALID,24.9979,VALID,170,VALID,0,
2010-03-08, 02:07:04,VALID,1010.69,VALID,0,VALID,101.011,VALID,0,VALID,25.0193,VALID,170,VALID,0,
2010-03-08, 02:08:04,VALID,1010.7,VALID,0,VALID,101.011,VALID,0,VALID,24.9979,VALID,170,VALID,0,
2010-03-08, 02:09:04,VALID,1010.69,VALID,0,VALID,101.018,VALID,0,VALID,25.0193,VALID,170,VALID,0,
2010-03-08, 02:10:04,VALID,1010.67,VALID,0,VALID,101.003,VALID,0,VALID,25.0193,VALID,170,VALID,0,
2010-03-08, 02:11:04,VALID,1010.64,VALID,0,VALID,100.988,VALID,0.105969,VALID,25.0583,VALID,170,VALID,0,
2010-03-08, 02:12:04,VALID,1010.65,VALID,0,VALID,101.003,VALID,0.105969,VALID,25.0778,VALID,170,VALID,0,
2010-03-08, 02:13:04,VALID,1010.63,VALID,0,VALID,101.003,VALID,0,VALID,25.0369,VALID,170,VALID,0,
2010-03-08, 02:14:04,VALID,1010.57,VALID,0,VALID,100.973,VALID,0,VALID,25.0564,VALID,170,VALID,0,
2010-03-08, 02:15:04,VALID,1010.55,VALID,0,VALID,100.919,VALID,0,VALID,25.0369,VALID,170,VALID,0,
2010-03-08, 02:16:04,VALID,1010.56,VALID,0,VALID,100.904,VALID,0,VALID,25.0583,VALID,170,VALID,0,
2010-03-08, 02:17:04,VALID,1010.53,VALID,0,VALID,100.889,VALID,0,VALID,25.0778,VALID,170,VALID,0,
2010-03-08, 02:18:04,VALID,1010.49,VALID,0,VALID,100.889,VALID,0,VALID,25.0778,VALID,170,VALID,0,
2010-03-08, 02:19:04,VALID,1010.48,VALID,0,VALID,100.881,VALID,0.105969,VALID,25.0564,VALID,170,VALID,0,
2010-03-08, 02:20:04,VALID,1010.49,VALID,0,VALID,100.851,VALID,0.105969,VALID,25.0564,VALID,170,VALID,0,
2010-03-08, 02:21:04,VALID,1010.5,VALID,0,VALID,100.812,VALID,0,VALID,25.0564,VALID,170,VALID,0,
2010-03-08, 02:22:04,VALID,1010.5,VALID,0,VALID,100.812,VALID,0,VALID,25.0778,VALID,170,VALID,0,
2010-03-08, 02:23:04,VALID,1010.46,VALID,0,VALID,100.805,VALID,0,VALID,25.0759,VALID,170,VALID,0,
2010-03-08, 02:24:04,VALID,1010.45,VALID,0,VALID,100.805,VALID,0,VALID,25.0778,VALID,170,VALID,0,
2010-03-08, 02:25:04,VALID,1010.39,VALID,0,VALID,100.805,VALID,0.105969,VALID,25.0973,VALID,170,VALID,0,
2010-03-08, 02:26:04,VALID,1010.33,VALID,0,VALID,100.797,VALID,0,VALID,25.0973,VALID,170,VALID,0,
2010-03-08, 02:27:04,VALID,1010.3,VALID,0,VALID,100.79,VALID,0,VALID,25.0778,VALID,170,VALID,0,
2010-03-08, 02:28:04,VALID,1010.24,VALID,0,VALID,100.79,VALID,0,VALID,25.0759,VALID,170,VALID,0,
2010-03-08, 02:29:04,VALID,1010.19,VALID,0,VALID,100.774,VALID,0,VALID,25.0564,VALID,170,VALID,0,
2010-03-08, 02:30:04,VALID,1010.15,VALID,0,VALID,100.782,VALID,0.105969,VALID,25.0759,VALID,170,VALID,0,
2010-03-08, 02:31:04,VALID,1010.12,VALID,0,VALID,100.782,VALID,0,VALID,25.0954,VALID,170,VALID,0,
2010-03-08, 02:32:04,VALID,1010.08,VALID,0,VALID,100.812,VALID,0,VALID,25.1167,VALID,170,VALID,0,
2010-03-08, 02:33:04,VALID,1010.08,VALID,0,VALID,100.79,VALID,0,VALID,25.0973,VALID,170,VALID,0,
2010-03-08, 02:34:04,VALID,1010.07,VALID,0,VALID,100.759,VALID,0,VALID,25.0973,VALID,170,VALID,0,
2010-03-08, 02:35:04,VALID,1010.04,VALID,0,VALID,100.751,VALID,0,VALID,25.0973,VALID,170,VALID,0,
2010-03-08, 02:36:04,VALID,1010.03,VALID,0,VALID,100.774,VALID,0,VALID,25.0973,VALID,170,VALID,0,
2010-03-08, 02:37:04,VALID,1010.02,VALID,0,VALID,100.782,VALID,0,VALID,25.0973,VALID,170,VALID,0,
2010-03-08, 02:38:04,VALID,1010.02,VALID,0,VALID,100.79,VALID,0,VALID,25.0564,VALID,170,VALID,0,
2010-03-08, 02:39:04,VALID,1009.98,VALID,0,VALID,100.744,VALID,0,VALID,25.0174,VALID,170,VALID,0,
2010-03-08, 02:40:04,VALID,1009.97,VALID,0,VALID,100.736,VALID,0,VALID,25.0193,VALID,170,VALID,0,
2010-03-08, 02:41:04,VALID,1009.94,VALID,0,VALID,100.744,VALID,0,VALID,24.9784,VALID,170,VALID,0,
2010-03-08, 02:42:04,VALID,1009.91,VALID,0,VALID,100.751,VALID,0,VALID,24.9803,VALID,170,VALID,0,
2010-03-08, 02:43:04,VALID,1009.86,VALID,0,VALID,100.744,VALID,0,VALID,24.9608,VALID,170,VALID,0,
2010-03-08, 02:44:04,VALID,1009.85,VALID,0,VALID,100.751,VALID,0,VALID,24.9199,VALID,170,VALID,0,
2010-03-08, 02:45:04,VALID,1009.84,VALID,0,VALID,100.79,VALID,0,VALID,24.9218,VALID,170,VALID,0,
2010-03-08, 02:46:04,VALID,1009.85,VALID,0,VALID,100.805,VALID,0,VALID,24.9004,VALID,170,VALID,0,
2010-03-08, 02:47:04,VALID,1009.83,VALID,0,VALID,100.828,VALID,0,VALID,24.9023,VALID,170,VALID,0,
2010-03-08, 02:48:04,VALID,1009.83,VALID,0,VALID,100.843,VALID,0,VALID,24.8828,VALID,170,VALID,0,
2010-03-08, 02:49:04,VALID,1009.84,VALID,0,VALID,100.866,VALID,0,VALID,24.8828,VALID,170,VALID,0,
2010-03-08, 02:50:04,VALID,1009.82,VALID,0,VALID,100.873,VALID,0,VALID,24.842,VALID,166,VALID,0,
2010-03-08, 02:51:04,VALID,1009.81,VALID,0,VALID,100.889,VALID,0,VALID,24.8438,VALID,165,VALID,0,
2010-03-08, 02:52:04,VALID,1009.81,VALID,0,VALID,100.881,VALID,0,VALID,24.7835,VALID,161,VALID,0,
2010-03-08, 02:53:04,VALID,1009.8,VALID,0,VALID,100.927,VALID,0,VALID,24.7854,VALID,21,VALID,0,
2010-03-08, 02:54:04,VALID,1009.79,VALID,0,VALID,100.912,VALID,0,VALID,24.7854,VALID,15,VALID,0,
2010-03-08, 02:55:04,VALID,1009.75,VALID,0,VALID,100.942,VALID,0,VALID,24.7659,VALID,353,VALID,0,
2010-03-08, 02:56:04,VALID,1009.74,VALID,0,VALID,100.942,VALID,0,VALID,24.725,VALID,353,VALID,0,
2010-03-08, 02:57:04,VALID,1009.73,VALID,0,VALID,100.942,VALID,0,VALID,24.7269,VALID,353,VALID,0,
2010-03-08, 02:58:04,VALID,1009.74,VALID,0,VALID,100.95,VALID,0.105969,VALID,24.725,VALID,355,VALID,0,
2010-03-08, 02:59:04,VALID,1009.72,VALID,0,VALID,100.973,VALID,0,VALID,24.7269,VALID,356,VALID,0,
2010-03-08, 03:00:04,VALID,1009.73,VALID,0,VALID,100.95,VALID,0,VALID,24.7269,VALID,356,VALID,0,
2010-03-08, 03:01:04,VALID,1009.74,VALID,0,VALID,100.95,VALID,0,VALID,24.7269,VALID,356,VALID,0,
2010-03-08, 03:02:04,VALID,1009.74,VALID,0,VALID,100.934,VALID,0,VALID,24.686,VALID,356,VALID,0,
2010-03-08, 03:03:04,VALID,1009.71,VALID,0,VALID,100.988,VALID,0,VALID,24.7074,VALID,356,VALID,0,
2010-03-08, 03:04:04,VALID,1009.71,VALID,0,VALID,100.973,VALID,0,VALID,24.6879,VALID,356,VALID,0,
2010-03-08, 03:05:04,VALID,1009.71,VALID,0,VALID,100.98,VALID,0,VALID,24.6879,VALID,356,VALID,0,
2010-03-08, 03:06:04,VALID,1009.71,VALID,0,VALID,101.003,VALID,0,VALID,24.6879,VALID,356,VALID,0,
2010-03-08, 03:07:04,VALID,1009.7,VALID,0,VALID,100.988,VALID,0,VALID,24.6684,VALID,356,VALID,0,
2010-03-08, 03:08:04,VALID,1009.65,VALID,0,VALID,101.011,VALID,0,VALID,24.6879,VALID,356,VALID,0,
2010-03-08, 03:09:04,VALID,1009.64,VALID,0,VALID,101.011,VALID,0,VALID,24.6879,VALID,356,VALID,0,
2010-03-08, 03:10:04,VALID,1009.61,VALID,0,VALID,101.034,VALID,0,VALID,24.6684,VALID,356,VALID,0,
2010-03-08, 03:11:04,VALID,1009.59,VALID,0,VALID,101.034,VALID,0,VALID,24.6489,VALID,356,VALID,0,
2010-03-08, 03:12:04,VALID,1009.59,VALID,0,VALID,101.026,VALID,0,VALID,24.6489,VALID,356,VALID,0,
2010-03-08, 03:13:04,VALID,1009.6,VALID,0,VALID,101.041,VALID,0,VALID,24.6489,VALID,356,VALID,0,
2010-03-08, 03:14:04,VALID,1009.62,VALID,0,VALID,101.026,VALID,0,VALID,24.6294,VALID,356,VALID,0,
2010-03-08, 03:15:04,VALID,1009.63,VALID,0,VALID,101.049,VALID,0,VALID,24.6099,VALID,356,VALID,0,
2010-03-08, 03:16:04,VALID,1009.64,VALID,0,VALID,101.056,VALID,0,VALID,24.6294,VALID,356,VALID,0,
2010-03-08, 03:17:04,VALID,1009.65,VALID,0,VALID,101.072,VALID,0,VALID,24.6099,VALID,356,VALID,0,
2010-03-08, 03:18:04,VALID,1009.68,VALID,0,VALID,101.087,VALID,0,VALID,24.5691,VALID,356,VALID,0,
2010-03-08, 03:19:04,VALID,1009.69,VALID,0,VALID,101.087,VALID,0,VALID,24.5691,VALID,356,VALID,0,
2010-03-08, 03:20:04,VALID,1009.7,VALID,0,VALID,101.087,VALID,0,VALID,24.571,VALID,356,VALID,0,
2010-03-08, 03:21:04,VALID,1009.67,VALID,0,VALID,101.102,VALID,0,VALID,24.5515,VALID,356,VALID,0,
2010-03-08, 03:22:04,VALID,1009.68,VALID,0,VALID,101.095,VALID,0,VALID,24.5515,VALID,356,VALID,0,
2010-03-08, 03:23:04,VALID,1009.73,VALID,0,VALID,101.102,VALID,0,VALID,24.5301,VALID,356,VALID,0,
2010-03-08, 03:24:04,VALID,1009.69,VALID,0,VALID,101.11,VALID,0,VALID,24.5515,VALID,356,VALID,0,
2010-03-08, 03:25:04,VALID,1009.67,VALID,0,VALID,101.11,VALID,0,VALID,24.5515,VALID,356,VALID,0,
2010-03-08, 03:26:04,VALID,1009.66,VALID,0,VALID,101.125,VALID,0,VALID,24.5515,VALID,356,VALID,0,
2010-03-08, 03:27:04,VALID,1009.66,VALID,0,VALID,101.125,VALID,0,VALID,24.5496,VALID,356,VALID,0,
2010-03-08, 03:28:04,VALID,1009.66,VALID,0,VALID,101.14,VALID,0,VALID,24.571,VALID,356,VALID,0,
2010-03-08, 03:29:04,VALID,1009.7,VALID,0,VALID,101.148,VALID,0,VALID,24.5515,VALID,356,VALID,0,
2010-03-08, 03:30:04,VALID,1009.7,VALID,0,VALID,101.156,VALID,0.105969,VALID,24.5515,VALID,356,VALID,0,
2010-03-08, 03:31:04,VALID,1009.68,VALID,0,VALID,101.163,VALID,0,VALID,24.532,VALID,356,VALID,0,
2010-03-08, 03:32:04,VALID,1009.71,VALID,0,VALID,101.156,VALID,0.105969,VALID,24.5106,VALID,356,VALID,0,
2010-03-08, 03:33:04,VALID,1009.71,VALID,0,VALID,101.148,VALID,0.105969,VALID,24.532,VALID,356,VALID,0,
2010-03-08, 03:34:04,VALID,1009.72,VALID,0,VALID,101.133,VALID,0,VALID,24.532,VALID,356,VALID,0,
2010-03-08, 03:35:04,VALID,1009.71,VALID,0,VALID,101.148,VALID,0,VALID,24.5106,VALID,356,VALID,0,
2010-03-08, 03:36:04,VALID,1009.73,VALID,0,VALID,101.148,VALID,0,VALID,24.5125,VALID,356,VALID,0,
2010-03-08, 03:37:04,VALID,1009.75,VALID,0,VALID,101.171,VALID,0,VALID,24.4911,VALID,356,VALID,0,
2010-03-08, 03:38:04,VALID,1009.79,VALID,0,VALID,101.178,VALID,0,VALID,24.493,VALID,356,VALID,0,
2010-03-08, 03:39:04,VALID,1009.77,VALID,0,VALID,101.163,VALID,0,VALID,24.5125,VALID,356,VALID,0,
2010-03-08, 03:40:04,VALID,1009.77,VALID,0,VALID,101.163,VALID,0,VALID,24.493,VALID,39,VALID,0,
2010-03-08, 03:41:04,VALID,1009.75,VALID,0,VALID,101.156,VALID,0,VALID,24.493,VALID,39,VALID,0,
2010-03-08, 03:42:04,VALID,1009.7,VALID,0,VALID,101.163,VALID,0,VALID,24.493,VALID,39,VALID,0,
2010-03-08, 03:43:04,VALID,1009.7,VALID,0,VALID,101.156,VALID,0,VALID,24.5125,VALID,39,VALID,0,
2010-03-08, 03:44:04,VALID,1009.67,VALID,0,VALID,101.156,VALID,0,VALID,24.5125,VALID,39,VALID,0,
2010-03-08, 03:45:04,VALID,1009.66,VALID,0,VALID,101.163,VALID,0,VALID,24.532,VALID,39,VALID,0,
2010-03-08, 03:46:04,VALID,1009.62,VALID,0,VALID,101.171,VALID,0,VALID,24.5125,VALID,39,VALID,0,
2010-03-08, 03:47:04,VALID,1009.62,VALID,0,VALID,101.156,VALID,0,VALID,24.532,VALID,39,VALID,0,
2010-03-08, 03:48:04,VALID,1009.56,VALID,0,VALID,101.163,VALID,0,VALID,24.532,VALID,39,VALID,0,
2010-03-08, 03:49:04,VALID,1009.55,VALID,0,VALID,101.156,VALID,0,VALID,24.532,VALID,39,VALID,0,
2010-03-08, 03:50:04,VALID,1009.51,VALID,0,VALID,101.156,VALID,0,VALID,24.5125,VALID,39,VALID,0,
2010-03-08, 03:51:04,VALID,1009.49,VALID,0,VALID,101.171,VALID,0,VALID,24.5125,VALID,39,VALID,0,
2010-03-08, 03:52:04,VALID,1009.48,VALID,0,VALID,101.178,VALID,0,VALID,24.5125,VALID,348,VALID,0,
2010-03-08, 03:53:04,VALID,1009.49,VALID,0,VALID,101.178,VALID,0,VALID,24.532,VALID,348,VALID,0,
2010-03-08, 03:54:04,VALID,1009.47,VALID,0,VALID,101.163,VALID,0,VALID,24.4911,VALID,348,VALID,0,
2010-03-08, 03:55:04,VALID,1009.47,VALID,0,VALID,101.171,VALID,0.105969,VALID,24.5515,VALID,348,VALID,0,